This demonstration page uses our WeatherBlox Daily Observations layout. Learn more.

36.17497, -115.13722

Hourly Observations for October 12, 2018

Temp ( °F °C ) Dew Point ( °F °C ) Humidity (%) Winds ( mph kmh ) Pressure ( in mb ) Visibility ( mi km ) Precip ( " mm )
12:53 am 00:53 Mostly Cloudy 65 18.3 43 6.1 45 45 ESE 6 9 29.94 1014 10 16.09344 0 0
1:53 am 01:53 Mostly Cloudy 65 18.3 43 6.1 45 45 Calm 29.94 1014 10 16.09344 0 0
2:53 am 02:53 Mostly Cloudy 64 17.8 44 6.7 48 48 Calm 29.94 1014 10 16.09344 0 0
3:53 am 03:53 Clear 63 17.2 44 6.7 50 50 NNW 7 11 29.94 1014 10 16.09344 0 0
4:53 am 04:53 Clear 63 17.2 41 5 45 45 NNW 7 11 29.94 1014 10 16.09344 0 0
5:53 am 05:53 Clear 63 17.2 40 4.4 43 43 N 10 17 29.97 1015 10 16.09344 0 0
6:53 am 06:53 Sunny 63 17.2 40 4.4 43 43 N 13 20 29.97 1015 10 16.09344 0 0
7:53 am 07:53 Sunny 64 17.8 39 3.9 40 40 N 14 22 29.97 1015 10 16.09344 0 0
8:53 am 08:53 Sunny 67 19.4 39 3.9 36 36 N 10 17 29.97 1015 10 16.09344 0 0
9:53 am 09:53 Sunny 70 21.1 39 3.9 32 32 NE 6 9 30 1016 10 16.09344 0 0
10:53 am 10:53 Sunny 71 21.7 39 3.9 31 31 NNE 5 7 29.97 1015 10 16.09344 0 0
11:53 am 11:53 Sunny 74 23.3 39 3.9 28 28 N 7 11 29.94 1014 10 16.09344 0 0
12:53 pm 12:53 Sunny 77 25 39 3.9 26 26 E 15 24 29.91 1013 10 16.09344 0 0
1:53 pm 13:53 Sunny 77 25 38 3.3 24 24 E 15 24 29.88 1012 10 16.09344 0 0
2:53 pm 14:53 Sunny 78 25.6 37 2.8 23 23 E 12 19 29.85 1011 10 16.09344 0 0
3:53 pm 15:53 Sunny 78 25.6 38 3.3 24 24 E 12 19 29.83 1010 10 16.09344 0 0
4:53 pm 16:53 Sunny 78 25.6 38 3.3 24 24 ESE 13 20 29.83 1010 10 16.09344 0 0
5:53 pm 17:53 Sunny 76 24.4 38 3.3 25 25 ESE 9 15 29.83 1010 10 16.09344 0 0
6:53 pm 18:53 Clear 73 22.8 37 2.8 27 27 E 3 6 29.83 1010 10 16.09344 0 0
7:53 pm 19:53 Clear 73 22.8 37 2.8 27 27 Calm 29.85 1011 10 16.09344 0 0
8:53 pm 20:53 Clear 70 21.1 39 3.9 32 32 Calm 29.85 1011 10 16.09344 0 0
9:53 pm 21:53 Clear 67 19.4 40 4.4 37 37 NW 3 6 29.85 1011 10 16.09344 0 0
10:53 pm 22:53 Clear 66 18.9 40 4.4 39 39 NW 6 9 29.85 1011 10 16.09344 0 0
11:53 pm 23:53 Clear 64 17.8 39 3.9 40 40 NW 5 7 29.85 1011 10 16.09344 0 0

Powered by AerisWeather